Lapse_Rate
1.2 0.4 -0.8 -0.5 6.3 6.5 6.5 6.5 6.5 6.5 6.5 5.4 4.6 5.6 6.3 6.1 6.4 6.5 5.7 3.7 3.7 2.8 2.7 2.9 5.3 5.1 5.4 4.5 3.7 2.5 3.1 4.3 4.9 5.0 6.5 6.5 6.5 6.4 6.3 6.2 6.1 6.5 6.7 6.7 6.6 6.5 6.7 6.9 6.5
0.2 1.7 -0.5 -0.3 6.5 6.5 6.5 6.5 6.5 6.5 6.0 4.0 5.5 5.8 5.8 6.5 5.8 6.1 5.4 3.9 3.7 2.6 2.1 2.6 4.9 4.5 4.6 5.5 4.5 3.7 2.4 3.2 4.1 4.3 5.1 6.3 6.6 6.4 6.4 6.2 6.2 6.4 6.5 6.6 6.4 6.3 6.4 6.3 6.1
1.3 0.6 1.4 6.5 6.5 6.5 6.5 6.5 6.5 5.7 4.8 4.4 5.7 4.6 5.9 6.0 6.5 5.6 4.6 4.2 3.2 2.0 1.5 2.7 4.3 4.5 4.2 4.5 5.3 4.6 3.6 2.4 3.0 3.5 4.0 4.3 6.4 6.5 6.4 6.2 6.0 6.1 6.0 6.0 5.9 6.1 6.1 6.2 5.9
0.4 0.3 1.6 6.5 6.5 6.5 6.5 6.5 5.8 5.7 5.3 4.3 5.4 6.4 6.2 5.7 5.6 4.3 4.1 3.5 2.6 1.7 1.5 2.1 3.7 3.8 3.8 3.8 4.1 4.3 3.6 3.2 2.2 2.5 2.8 3.4 4.0 6.7 6.3 5.9 5.8 5.8 5.7 5.5 5.8 6.1 6.2 6.1 6.0
-1.1 0.6 6.5 6.5 6.5 6.5 6.5 5.9 5.5 6.5 5.8 5.3 4.9 6.5 6.2 5.6 4.7 3.7 3.0 3.3 1.7 2.0 1.8 1.5 3.2 3.3 3.2 3.3 3.3 3.4 3.8 2.7 2.7 1.9 2.0 2.7 3.2 3.6 6.5 5.7 5.5 5.4 5.6 5.4 5.6 5.9 5.8 6.1 6.3
1.9 2.7 6.5 6.5 6.5 6.5 6.3 4.1 5.6 5.8 5.2 5.0 5.5 6.0 6.1 5.5 4.6 3.0 3.0 2.0 2.7 1.8 2.1 1.9 1.8 2.2 2.5 2.5 2.3 2.7 2.5 2.6 1.7 1.8 1.5 1.9 2.0 2.6 4.7 5.7 5.2 5.3 5.4 5.4 5.5 5.7 5.7 6.2 6.2
5.1 6.5 6.5 6.5 6.5 6.5 6.5 3.7 6.0 6.0 5.3 5.9 5.2 6.5 5.9 5.1 4.1 3.5 2.8 3.0 2.6 2.3 1.7 1.6 1.9 1.5 0.7 1.7 1.8 1.6 2.2 1.2 1.2 1.7 0.5 0.5 1.0 1.1 2.5 6.3 5.3 5.2 5.3 5.4 5.4 5.5 5.5 5.9 5.7
1.5 6.1 6.5 6.5 6.5 6.5 6.0 5.2 6.0 5.8 6.1 4.4 4.6 6.3 6.0 5.0 4.0 3.6 3.2 2.5 2.8 3.0 2.2 0.7 1.3 2.0 1.3 0.3 1.2 0.8 0.9 1.5 1.0 0.6 0.5 0.1 -0.3 0.0 0.0 1.8 6.2 5.3 5.2 5.3 5.3 5.3 5.3 5.5 5.6
3.3 6.5 6.5 6.5 6.5 6.5 5.9 6.3 5.7 5.4 5.6 5.4 4.4 5.6 5.1 3.8 3.7 3.6 2.4 2.2 2.6 3.6 2.7 2.7 1.3 1.5 1.6 2.8 0.5 -0.2 -0.4 -0.3 0.0 -0.6 -0.8 -0.1 -0.9 -0.8 -0.6 0.4 3.3 6.0 5.3 5.3 5.3 5.2 5.2 5.0 5.2
4.4 6.5 6.5 6.5 6.4 6.5 5.9 6.2 6.0 6.0 5.4 5.9 5.8 4.7 4.0 4.0 3.7 3.2 2.9 3.0 3.7 3.7 3.1 3.3 2.4 1.5 1.4 2.3 1.2 -0.4 -0.4 -1.4 -1.6 -1.2 -1.3 -0.8 -0.3 -1.3 -0.6 -0.5 0.6 5.7 5.9 5.5 5.4 5.1 4.6 4.6 5.0
5.4 6.5 6.5 6.4 6.4 6.1 6.1 5.7 5.9 6.3 6.5 4.3 4.6 4.3 4.1 3.8 3.8 3.6 3.8 4.3 4.6 4.5 3.4 3.1 2.8 2.7 1.6 0.8 1.2 0.5 -0.5 -0.6 -1.5 -1.4 -1.3 -1.6 -0.8 -1.0 -0.8 -0.8 -0.2 5.4 5.7 5.6 5.4 4.8 4.1 4.7 5.1
6.4 6.2 6.3 6.1 5.1 5.4 6.1 5.3 5.9 5.5 4.9 5.2 4.9 3.8 3.7 3.5 3.6 3.3 3.8 4.8 4.9 4.6 4.2 3.4 3.6 3.0 2.6 1.8 1.0 0.8 0.2 0.1 -0.5 -1.3 -0.6 -1.1 -0.8 1.2 -0.4 -0.0 -0.4 4.1 5.5 6.1 5.5 4.2 4.1 4.9 5.3
6.4 6.2 6.0 5.6 4.4 5.6 5.4 5.6 6.2 4.9 4.1 3.6 4.5 3.9 3.4 3.0 3.3 3.4 4.0 4.9 5.2 5.0 4.3 3.8 3.8 3.3 3.0 2.2 1.2 0.7 0.4 -0.1 -0.2 -0.7 -0.6 0.2 0.6 0.9 0.7 0.6 -0.4 -0.2 5.2 6.1 4.8 4.3 4.1 4.8 4.8
5.9 6.0 5.9 5.7 5.0 5.6 6.1 6.0 6.6 5.6 4.9 4.6 3.9 3.5 3.4 3.4 3.4 4.0 3.7 5.2 5.6 5.2 4.2 4.0 3.7 4.2 3.2 2.2 1.3 0.6 0.9 0.9 -0.0 -0.2 -0.1 0.4 1.5 0.9 -0.2 -0.1 0.7 0.1 5.1 5.5 4.8 4.4 4.3 4.5 5.0
5.8 6.5 6.4 5.8 5.4 6.1 5.2 6.5 6.5 5.3 4.5 4.9 4.3 4.0 3.8 3.6 3.8 3.7 4.7 5.7 5.7 4.6 3.8 3.7 4.1 4.1 2.5 1.6 1.3 0.8 0.9 1.2 0.1 0.1 0.4 0.4 1.3 0.7 0.4 -0.1 0.2 0.4 3.2 5.0 5.1 4.4 4.0 4.3 4.7
6.5 6.5 6.5 6.5 5.7 6.0 5.9 6.5 6.3 4.7 4.9 5.1 4.3 4.1 4.1 4.0 4.0 4.0 4.7 5.5 5.4 4.5 3.7 3.6 4.0 2.4 2.0 1.5 1.2 1.4 1.1 0.7 0.4 0.5 0.7 0.5 0.6 0.8 -0.2 -1.0 -0.1 -0.4 -0.6 5.0 4.7 3.8 3.7 4.3 4.9
6.5 6.5 6.5 6.5 6.2 6.5 6.4 6.5 5.9 4.7 5.3 5.1 4.9 3.4 4.1 3.4 3.7 3.7 4.3 5.0 5.0 3.9 3.5 3.1 2.3 1.8 1.4 1.5 1.3 1.0 1.1 0.7 0.9 1.1 1.0 0.8 0.8 0.3 0.4 -0.5 -0.8 -0.5 -0.2 5.0 4.8 4.1 4.0 4.4 4.5
6.5 6.5 6.5 6.5 6.5 6.5 6.5 6.5 6.4 5.2 4.9 3.7 3.1 2.6 3.4 3.6 3.6 4.7 4.2 4.7 4.2 3.6 3.0 2.4 2.1 1.7 1.1 0.6 0.5 0.3 -0.5 0.2 0.9 1.3 1.1 1.6 0.9 0.9 0.5 0.6 -0.4 -1.4 0.8 1.9 4.7 4.7 4.6 4.1 4.3
6.5 6.5 6.5 6.5 6.5 6.5 6.5 6.5 6.5 5.7 4.4 3.9 2.5 2.1 2.0 3.0 4.4 4.5 4.8 4.2 3.7 3.3 2.7 2.2 1.6 1.4 0.9 0.6 1.4 1.8 1.0 0.6 0.4 0.4 1.6 2.1 1.4 1.2 1.5 0.5 1.7 0.7 0.3 1.5 3.8 4.6 4.7 4.3 3.8
6.5 6.5 6.5 6.5 6.5 6.5 6.5 6.5 6.5 6.1 5.4 4.9 4.1 2.6 1.9 3.7 3.7 3.8 3.8 3.9 3.3 2.7 2.0 1.4 1.8 1.7 2.1 1.7 1.9 2.2 2.9 2.2 0.9 1.1 1.4 2.0 2.0 1.7 1.4 1.5 1.4 0.4 1.9 2.4 0.9 4.6 4.5 3.6 4.3
6.5 6.5 6.5 6.5 6.5 6.5 6.5 6.5 6.5 6.4 5.7 4.7 4.4 2.8 2.4 2.3 2.7 3.3 3.6 3.4 2.5 1.7 1.8 2.4 2.5 3.3 3.2 3.0 2.9 3.3 3.2 2.3 1.6 1.1 1.1 1.9 2.5 2.0 1.6 1.0 1.3 0.6 1.4 1.4 1.8 4.7 4.3 3.9 5.6
6.5 6.5 6.5 6.5 6.5 6.5 6.5 6.5 6.5 6.5 6.5 6.3 3.6 2.5 1.7 2.1 3.0 2.9 3.0 2.8 2.7 3.1 2.6 2.4 3.4 4.1 4.5 3.1 3.7 3.8 4.3 4.2 3.4 2.9 1.9 1.6 2.4 2.1 2.2 1.0 0.9 -0.4 -0.2 0.5 1.4 4.1 4.5 3.6 5.5
6.5 6.5 6.5 6.5 6.5 6.5 6.5 6.5 6.5 6.5 6.5 6.5 5.1 2.3 0.9 1.1 2.2 2.4 2.3 2.6 3.6 4.0 4.1 4.8 5.5 5.2 4.7 4.6 5.0 4.8 4.8 4.7 4.0 3.7 2.9 2.2 2.0 2.4 2.4 2.5 1.2 0.9 -0.3 1.3 1.9 2.7 5.0 4.5 4.2
6.5 6.5 6.5 6.5 6.5 6.5 6.5 6.5 6.5 6.5 6.5 6.5 5.6 2.9 2.4 2.0 2.1 2.2 2.1 3.3 4.3 5.0 5.6 5.3 5.8 6.6 6.8 6.4 5.7 5.6 5.5 5.7 5.8 4.6 3.9 3.2 2.8 2.2 2.8 2.9 3.0 1.8 0.5 0.4 2.5 3.3 3.9 5.1 5.0
6.5 6.5 6.5 6.5 6.5 6.5 6.5 6.5 6.5 6.5 6.5 6.5 6.0 2.9 1.9 1.0 1.6 1.9 3.4 4.7 6.2 6.6 6.6 6.8 7.7 7.7 7.7 7.8 7.7 7.4 6.7 6.4 6.1 5.9 5.1 4.0 3.6 3.1 2.7 3.3 3.3 3.6 1.4 0.4 2.4 3.1 4.4 5.5 4.4
6.5 6.5 6.5 6.5 6.5 6.5 6.5 6.5 6.5 6.5 5.0 3.3 3.5 2.7 2.9 1.9 1.6 2.1 3.1 5.7 6.5 6.8 7.2 7.6 7.8 7.9 8.1 8.4 8.1 8.1 8.2 7.7 7.1 6.9 6.5 5.4 4.6 4.4 3.8 4.0 3.4 4.2 3.1 2.2 1.0 3.5 3.5 5.4 5.1
6.5 6.5 6.5 6.5 6.5 6.5 6.5 6.5 6.5 6.5 6.5 5.3 3.4 4.0 2.2 1.2 1.7 3.4 5.1 6.2 6.2 7.1 7.7 8.0 8.1 8.2 8.4 8.5 8.7 8.6 8.9 8.5 8.0 7.9 7.7 7.3 6.0 6.2 5.0 4.6 4.1 3.8 4.3 3.2 0.6 1.7 3.3 5.3 5.6
6.5 6.5 6.5 6.5 6.5 6.5 6.5 6.5 6.5 6.5 6.5 6.5 6.1 3.4 1.4 1.5 3.0 4.6 5.8 5.7 6.7 7.3 7.9 8.1 8.2 8.3 8.5 8.7 8.7 8.8 8.9 9.0 8.6 8.3 8.2 7.9 7.4 6.6 6.1 5.7 4.7 4.8 4.5 2.9 1.6 0.8 3.3 5.1 5.4
6.5 6.5 6.5 6.5 6.5 6.5 6.5 6.5 6.5 6.5 6.5 6.5 5.3 1.0 -0.2 1.1 3.1 4.1 5.3 5.8 7.0 7.4 8.0 8.4 8.3 8.4 8.7 8.8 8.8 8.7 8.6 8.6 8.8 8.5 8.5 8.4 8.2 7.4 6.8 6.4 5.4 5.0 5.7 4.4 3.4 1.9 2.7 5.3 5.4
6.5 6.5 6.5 6.5 6.5 6.5 6.5 6.5 6.5 6.5 6.6 0.3 1.9 -1.3 0.5 1.5 2.8 4.3 4.7 6.1 6.7 7.5 8.2 8.2 8.4 8.6 8.5 8.6 8.5 8.6 8.6 8.7 8.6 8.5 8.5 8.6 8.4 8.1 7.5 7.4 6.6 5.8 5.1 4.9 3.3 2.0 3.0 5.5 5.3
Wind_Speed
12 11 2 4 4 5 1 2 2 5 7 3 5 5 7 4 4 1 3 7 14 15 22 22 27 29 30 30 31 29 30 29 28 28 11 9 13 15 19 20 20 17 17 18 20 22 23 24 24
8 3 4 3 5 3 3 2 3 2 3 7 2 1 6 4 4 3 4 9 14 15 20 22 28 28 28 29 30 29 27 29 28 27 22 11 14 17 19 20 20 19 18 17 19 21 22 24 26
4 4 4 4 4 3 2 2 4 6 5 6 3 5 3 4 3 3 5 11 12 17 20 23 27 28 27 28 28 28 28 26 27 28 26 22 15 18 20 20 19 18 18 19 20 21 23 25 27
4 5 4 4 2 2 2 4 5 6 4 9 1 6 4 4 2 4 7 11 12 15 20 22 27 28 27 27 28 29 28 27 27 28 27 26 25 16 19 19 18 19 20 22 21 23 25 25 27
4 3 4 4 3 2 3 4 4 5 3 5 6 2 4 3 5 5 5 10 8 14 19 18 25 27 28 27 28 27 26 27 27 27 27 27 25 24 19 19 19 19 22 24 24 25 26 25 27
4 3 5 1 3 2 3 5 2 4 5 6 5 3 3 1 4 5 6 7 11 9 16 22 22 24 27 27 28 29 28 25 28 26 26 27 27 22 16 20 21 22 24 26 27 26 26 25 27
6 4 3 3 2 2 4 8 3 3 5 3 3 3 4 0 2 4 5 7 8 12 12 15 20 22 23 25 27 27 28 30 28 25 26 26 25 23 24 20 23 25 26 27 28 28 27 27 27
4 4 4 3 3 3 3 4 2 3 4 5 2 4 4 3 3 3 4 5 6 9 12 14 14 19 22 19 26 28 26 26 26 26 25 26 22 24 24 23 24 25 27 28 30 29 29 28 25
2 5 4 3 3 4 2 5 2 1 2 2 3 2 3 6 4 3 5 5 5 6 9 16 17 16 19 19 20 23 24 25 26 25 27 23 19 21 22 23 15 26 29 30 31 30 30 29 25
6 5 3 2 1 2 5 3 2 3 4 2 1 3 4 3 3 4 2 3 4 6 7 11 15 16 18 15 18 18 18 17 19 20 20 18 19 19 21 21 27 25 30 30 31 31 31 27 21
5 4 1 2 2 3 4 5 1 2 4 7 5 6 6 3 3 3 2 2 2 4 5 8 13 17 17 15 16 14 15 15 16 19 20 19 16 17 14 16 19 20 27 25 27 28 24 23 20
6 3 2 3 4 3 4 6 5 5 6 3 7 5 4 6 5 5 5 2 3 5 6 7 13 13 15 16 14 15 13 15 14 16 19 17 13 12 12 10 15 14 20 21 23 17 21 21 21
5 3 2 2 6 4 4 5 5 7 8 5 4 6 7 6 7 6 6 3 1 4 6 7 10 10 14 13 14 13 12 12 14 14 16 16 13 9 14 12 16 14 15 19 13 16 17 19 20
3 2 3 4 5 3 5 5 4 3 4 1 5 6 6 7 9 5 5 4 2 4 6 6 7 9 13 11 12 11 13 14 13 12 14 17 14 13 14 10 11 11 12 18 18 15 11 11 19
1 2 3 6 6 4 4 2 5 3 4 5 7 7 7 9 8 8 5 3 1 3 6 7 6 6 9 10 12 13 14 15 12 12 13 17 14 15 13 8 9 10 12 18 18 17 17 11 14
6 5 7 1 8 4 6 7 5 4 5 7 8 7 8 10 9 6 5 3 2 4 6 6 7 8 7 9 10 11 13 13 13 13 13 15 16 13 14 8 8 13 21 14 11 12 12 13 12
8 2 3 9 4 4 5 9 6 7 8 11 11 9 9 9 8 7 6 5 4 5 6 7 7 7 6 8 10 11 13 11 12 14 13 15 16 15 12 8 11 13 12 10 11 12 15 13 12
5 5 5 8 5 1 11 17 11 12 6 11 9 8 8 8 10 5 7 6 6 6 7 7 6 7 7 7 6 6 5 7 11 11 11 15 15 15 15 10 10 12 9 4 12 15 14 16 14
4 3 6 6 3 10 3 13 17 12 5 8 8 7 8 9 4 4 5 5 6 7 6 7 7 8 4 3 5 7 5 6 5 8 13 15 14 15 12 10 8 9 9 8 5 15 18 13 14
4 3 6 13 2 6 8 21 8 5 6 5 6 7 7 4 6 7 6 6 6 7 9 8 8 8 6 3 4 3 6 6 6 10 12 14 14 14 12 8 7 9 7 8 13 17 12 14 17
3 3 2 6 10 1 10 7 3 3 4 6 5 5 5 8 8 6 6 7 8 8 10 9 8 9 8 7 4 5 6 5 4 4 5 8 13 14 13 11 7 8 7 6 10 16 21 15 14
3 2 8 8 4 3 7 5 6 4 8 6 8 7 8 8 6 6 8 9 9 11 9 8 8 9 10 7 6 8 9 10 8 7 7 7 13 12 14 13 11 10 7 7 8 5 16 22 15
5 6 3 2 3 4 4 3 8 3 7 7 8 9 9 9 8 9 9 9 12 11 9 9 11 12 11 9 9 8 10 9 8 7 9 9 8 12 14 12 10 8 8 8 10 8 10 17 18
8 3 2 3 3 3 4 4 7 4 6 4 4 7 9 10 11 8 9 9 10 8 8 9 11 13 12 11 12 13 14 13 10 9 8 7 6 6 9 12 8 9 9 9 9 8 11 17 18
9 6 4 6 5 5 5 2 13 7 7 7 9 10 9 9 8 8 9 12 12 13 15 13 14 13 11 13 14 15 15 15 15 12 9 9 7 6 7 9 7 7 8 11 12 9 8 15 19
3 4 4 5 4 6 1 7 6 7 6 8 8 9 8 9 7 8 10 13 14 16 16 15 14 14 14 15 17 16 16 11 10 12 9 9 8 7 8 9 9 8 9 11 10 7 7 12 16
1 4 2 5 1 3 4 8 12 5 8 7 11 8 12 10 9 10 13 14 16 16 18 17 17 17 17 16 15 15 16 16 13 14 11 9 10 9 10 10 11 11 9 12 11 8 7 8 15
4 3 3 3 4 7 5 6 6 8 8 5 7 9 10 8 10 13 15 16 16 17 17 17 17 17 17 17 15 14 15 15 14 13 14 13 12 11 11 11 11 11 12 11 11 10 8 8 12
2 2 4 4 3 4 4 8 8 10 7 9 9 9 11 12 14 15 15 16 17 17 16 17 17 17 17 15 16 16 15 16 16 15 14 14 13 13 13 12 12 13 12 11 11 12 9 10 15
2 5 5 4 5 1 2 10 5 10 9 5 11 11 13 12 16 15 15 18 18 18 17 17 18 17 16 16 16 16 16 16 16 15 15 14 14 13 14 13 13 13 12 12 12 12 10 10 16
Wind_Direction
332 333 31 41 58 67 76 37 9 5 2 34 321 49 122 109 67 191 203 15 0 349 346 345 8 10 8 7 4 1 5 8 10 6 281 222 192 184 168 163 159 159 158 150 141 141 136 128 124
331 348 46 75 81 54 277 331 37 357 339 310 87 25 41 54 26 81 19 351 3 357 354 347 7 11 10 7 6 0 359 4 7 8 10 270 213 187 180 171 165 162 159 154 147 141 136 126 123
321 32 76 88 105 156 198 33 307 326 352 14 77 61 47 355 4 55 336 354 6 9 2 358 8 9 12 9 6 2 357 356 2 5 6 358 252 196 187 178 170 165 159 154 147 142 138 130 127
22 13 37 76 89 77 69 328 359 350 10 37 92 64 68 353 48 4 350 11 17 7 8 6 10 8 10 12 6 4 2 353 354 0 2 359 1 220 191 181 174 165 158 149 148 146 140 135 132
33 53 59 71 64 97 60 17 349 4 22 353 352 110 94 60 74 36 20 20 20 4 8 9 13 11 8 11 9 4 1 0 351 355 357 356 351 347 207 181 173 162 157 148 150 148 142 138 134
43 81 54 23 48 54 52 5 329 21 360 339 38 81 79 287 60 5 23 19 18 5 5 4 8 12 9 8 10 4 2 359 360 348 354 352 348 340 309 183 167 164 156 153 151 149 146 141 139
94 69 106 76 8 35 24 332 40 341 328 358 288 90 148 267 46 34 20 17 8 9 0 3 6 4 9 8 8 8 360 1 360 350 349 350 350 344 333 210 174 166 162 157 155 151 149 145 140
90 89 82 53 16 7 0 356 358 45 283 311 337 170 207 171 132 59 25 19 6 5 1 357 6 11 2 3 6 5 4 0 357 356 350 345 349 347 339 326 187 172 164 160 155 153 149 143 142
47 61 53 35 356 285 27 15 284 269 277 2 349 131 158 137 115 62 25 3 358 1 357 358 356 1 7 1 1 2 360 1 359 356 353 344 348 345 335 315 288 182 169 163 157 152 148 141 140
54 70 53 224 297 318 322 230 293 340 332 249 103 78 126 123 85 86 78 20 349 351 342 353 352 355 360 3 360 355 356 354 354 350 346 346 342 337 334 324 314 199 174 163 159 150 144 137 140
8 83 179 357 349 6 299 296 217 230 269 235 221 187 175 150 136 153 208 243 322 324 339 338 348 353 357 353 358 354 353 352 352 348 344 344 346 326 333 331 325 211 182 166 157 147 144 145 142
89 60 60 357 9 353 292 319 295 213 243 313 249 168 177 175 195 209 206 224 0 353 325 329 343 347 350 347 349 344 350 351 347 343 339 343 335 312 343 314 318 261 192 186 160 153 146 144 142
55 352 52 333 35 29 314 292 265 263 283 275 164 172 193 195 214 223 216 218 318 356 318 325 331 338 345 342 339 340 339 338 334 338 336 339 335 321 303 302 319 314 194 185 162 151 148 145 140
296 299 327 55 10 29 2 290 28 313 353 115 196 216 222 212 217 206 207 218 32 341 323 312 320 331 340 335 329 327 332 327 331 329 330 333 331 329 332 320 309 319 203 172 165 154 153 146 141
54 21 22 26 340 8 321 1 206 287 327 244 225 238 241 242 232 226 213 176 80 330 309 307 292 327 336 331 322 328 325 324 322 320 324 324 325 317 308 319 301 322 285 165 166 153 147 142 139
35 51 354 57 5 5 54 274 264 307 3 274 251 258 238 241 239 231 221 171 203 302 306 301 315 319 323 320 313 317 321 319 312 314 319 317 317 320 314 304 301 334 311 159 165 156 152 144 145
15 286 339 313 78 317 55 282 237 292 293 271 260 251 242 237 245 237 207 195 253 278 296 306 310 305 308 308 312 307 308 307 304 311 312 310 311 314 306 312 303 310 306 164 162 165 153 149 145
312 327 281 252 309 185 281 265 287 297 273 268 258 251 250 238 240 233 203 224 259 275 279 289 292 285 288 290 293 291 284 287 295 297 302 303 303 311 305 297 307 326 302 309 164 165 159 151 144
229 217 256 258 283 339 246 285 288 297 295 293 271 256 244 230 212 207 232 261 287 281 272 277 286 282 286 294 318 322 310 306 297 289 297 297 296 304 319 321 298 298 299 307 251 162 153 147 139
193 204 266 293 252 332 311 296 273 267 259 256 268 276 240 212 206 232 260 285 292 277 282 278 273 279 281 260 269 270 299 290 281 289 287 285 289 292 300 302 294 304 311 300 303 164 152 148 158
217 204 304 243 321 247 309 297 298 278 279 279 264 252 238 220 224 251 272 276 275 272 269 271 258 265 267 262 264 275 280 278 279 278 281 283 285 288 290 290 285 277 291 293 308 170 156 156 166
299 100 325 292 31 292 9 289 304 279 295 274 267 247 241 236 241 244 262 276 278 278 273 265 263 264 270 247 244 250 270 279 279 276 279 279 278 279 284 289 290 290 306 318 303 247 173 157 161
254 348 287 85 80 30 353 68 271 330 283 259 252 246 239 238 240 255 257 266 278 284 272 272 276 270 258 257 250 255 258 264 269 267 271 271 271 271 272 273 281 273 278 282 277 277 209 171 162
309 15 90 67 98 9 249 96 280 224 217 257 251 256 250 240 242 252 267 275 275 273 275 269 268 266 264 259 255 245 251 257 263 263 263 268 266 267 263 263 256 264 258 275 262 253 266 183 170
19 25 342 353 3 242 181 40 247 250 232 230 248 267 269 256 251 265 285 289 289 292 289 290 286 275 260 260 258 255 249 253 253 254 256 260 261 257 257 256 251 253 254 259 258 260 275 201 168
14 108 136 275 294 288 73 229 258 212 244 244 257 249 272 269 264 273 271 291 297 294 293 288 282 279 273 268 264 263 255 253 250 249 245 249 249 250 247 251 257 245 252 253 272 263 271 204 180
294 51 187 93 96 13 273 286 288 261 271 254 255 251 257 262 269 272 298 297 298 297 296 294 289 282 276 271 267 263 266 253 251 249 243 243 242 246 244 244 256 258 244 246 256 269 259 210 197
112 140 33 20 330 301 279 281 249 294 275 268 270 255 267 267 280 295 300 300 301 298 297 291 280 279 279 277 273 268 263 260 255 250 247 241 239 239 243 244 246 247 244 240 241 255 251 241 197
79 16 44 116 124 204 298 273 217 235 249 252 267 270 274 277 289 294 297 300 302 300 295 293 289 286 285 282 274 268 262 260 257 251 248 240 237 236 236 235 241 238 240 242 237 239 244 248 189
130 193 156 130 247 153 140 267 243 234 253 202 267 269 275 276 281 291 298 307 306 302 299 295 293 292 286 280 274 269 265 258 252 247 246 238 235 229 229 229 235 239 236 237 239 242 228 239 186